Location: Newark
(52.2090°N, 4.1550°W)
Time: 01:20:35
(UTC+00:00)

Transit 2A - Pass Details

Date: 30 October 2019
Orbit: 602 x 957 km, 66.7° (Epoch: 22 November)

Event Time Altitude Azimuth Distance (km) Brightness Sun altitude
Rises 18:04:49 0° 226° (SW) 3,248 10.2 -11.6°
Reaches altitude 10° 18:07:20 10° 229° (SW) 2,265 9.4 -12.0°
Maximum altitude 18:12:26 67° 312° (NW) 759 6.1 -12.8°
Drops below altitude 10° 18:17:06 10° 35° (NE) 2,071 7.9 -13.5°
Enters shadow 18:17:21 - 36° (NE) 2,170 8.0 -13.5°
